Theta_e
316 316 316 316 316 317 317 316 317 318 319 320 320 320 319 319 319 320 320 318 319 317 317 318 317 319 316 305 303 317 324 323 321 319 314 311 305 304 299 300 301 300 300 303 304 304 305
318 317 316 316 316 315 316 315 317 317 318 319 320 320 319 319 319 319 319 317 317 316 316 317 316 315 308 298 311 319 318 319 318 315 313 312 306 308 302 300 299 302 302 301 303 304 305
320 320 319 318 316 315 315 316 316 317 317 319 320 319 319 319 319 319 319 318 316 315 315 317 316 312 304 301 313 316 317 316 317 315 310 312 310 306 305 300 304 302 297 299 301 302 301
319 319 319 318 317 316 315 315 316 316 317 318 319 319 318 318 318 318 318 318 316 315 316 317 315 310 299 311 314 313 315 313 315 313 313 312 311 305 305 305 301 297 296 291 299 302 300
318 319 318 318 317 316 315 314 315 316 317 318 318 318 318 317 318 318 318 316 318 316 317 317 308 304 297 312 306 309 310 309 311 310 311 311 308 302 304 296 293 293 287 290 294 301 299
318 318 318 318 316 316 315 314 315 316 316 317 317 317 317 317 318 318 317 315 317 318 317 315 310 299 301 299 306 308 309 310 307 306 304 303 299 296 297 291 284 287 288 291 291 296 298
317 316 317 317 317 316 315 315 315 315 316 316 317 316 316 317 317 317 315 312 307 304 305 298 299 297 299 304 309 304 307 305 305 302 294 298 292 289 293 294 295 294 291 290 294 298 296
315 316 316 316 316 316 316 314 314 315 316 316 316 315 315 316 316 316 313 305 303 306 296 303 302 302 304 305 297 301 306 298 297 293 296 293 289 296 298 297 295 293 291 289 292 296 294
314 315 315 316 315 315 315 315 314 314 315 315 315 315 314 315 315 312 308 305 311 309 298 299 303 302 301 303 297 297 302 298 294 292 293 291 294 298 295 294 292 292 290 290 290 293 293
313 313 314 314 314 314 314 314 314 314 314 314 313 313 314 314 309 311 307 310 312 310 293 292 296 300 303 302 294 304 303 301 296 291 295 293 296 294 292 292 293 290 293 296 292 289 283
313 313 313 313 313 313 313 314 314 313 313 314 314 313 313 312 308 307 308 311 312 305 277 294 297 307 303 298 298 300 307 301 292 294 294 290 292 292 292 292 293 291 295 294 293 290 287
312 313 312 312 312 312 313 313 313 313 312 313 313 313 312 313 311 310 311 311 306 290 275 291 298 297 296 298 298 300 299 302 299 295 295 293 298 295 293 295 294 295 293 294 292 289 281
313 312 312 312 312 312 312 312 313 313 312 312 313 313 309 310 306 312 311 305 291 281 292 290 291 296 295 293 293 296 293 291 289 285 285 291 292 295 296 291 293 292 287 280 280 278 278
313 313 311 311 312 312 312 312 313 313 313 313 312 311 311 310 311 311 307 296 281 288 289 295 293 294 291 293 292 293 291 288 292 291 286 285 279 291 295 291 288 289 286 283 277 276 278
312 312 313 312 312 312 312 312 313 313 313 312 310 310 311 312 311 309 300 288 286 290 293 291 293 289 289 292 290 290 289 288 290 291 284 284 282 293 293 293 291 288 284 287 282 279 280
311 311 312 312 312 311 312 312 313 313 313 312 309 309 308 310 311 305 297 290 290 295 295 295 287 290 285 288 288 288 287 290 291 293 291 288 281 291 292 294 292 288 290 283 284 277 277
310 311 311 312 312 312 312 312 312 313 313 311 309 303 307 309 307 301 292 289 295 297 296 293 291 289 289 289 289 287 288 290 293 293 293 289 288 284 290 287 286 287 286 285 285 282 278
312 311 311 311 312 312 312 311 312 312 311 310 307 300 309 308 300 297 292 294 295 296 298 296 295 293 290 290 289 288 288 290 294 294 289 289 288 280 284 289 290 288 287 286 282 279 280
313 311 311 311 312 312 312 311 311 312 310 305 302 301 310 306 294 292 294 295 296 295 295 294 293 294 293 290 287 290 290 294 295 293 288 290 286 278 280 284 287 285 288 287 286 285 280
314 313 312 312 312 312 312 311 311 311 310 305 301 299 303 302 298 294 292 291 292 296 295 295 294 294 292 289 291 288 290 294 293 293 296 293 286 282 279 282 286 282 285 286 285 279 281
315 314 313 313 313 313 312 311 311 311 310 304 302 295 296 293 293 293 293 291 290 290 294 294 292 292 290 287 287 287 289 291 293 296 291 289 283 282 284 285 285 285 286 285 283 284 280
316 315 314 314 313 312 311 310 310 310 309 306 299 297 296 294 294 293 291 291 291 292 292 290 290 292 291 288 288 287 289 288 287 289 287 290 283 282 279 284 283 281 285 286 286 286 285
316 315 315 315 314 312 310 309 310 310 309 304 302 301 298 293 293 291 291 291 292 293 294 294 293 291 290 291 292 291 291 291 289 288 287 286 284 281 279 280 281 279 283 284 285 286 286
316 316 316 315 314 312 310 309 310 310 307 305 301 301 297 292 293 292 294 294 293 293 291 294 294 291 292 294 294 293 291 291 291 290 290 286 284 282 278 280 276 281 285 287 286 287 288
315 317 316 316 315 313 310 309 309 310 308 304 303 301 298 292 294 293 293 293 293 292 292 293 293 293 294 291 288 284 284 284 286 288 289 289 286 281 278 278 282 281 283 284 284 285 288
311 312 315 316 315 313 311 309 309 309 308 306 302 301 300 294 292 295 293 293 291 290 290 292 294 295 292 290 287 281 281 281 280 282 288 289 288 283 280 277 276 283 286 289 288 281 288
309 309 310 314 315 313 311 309 309 309 308 306 301 302 300 295 295 294 292 292 294 291 290 291 291 290 292 287 284 282 282 283 280 280 280 283 283 280 280 278 283 286 288 288 279 282 289
306 308 308 310 314 313 311 310 309 308 307 305 302 303 299 296 296 297 296 293 293 292 290 291 290 290 289 284 284 285 283 283 281 283 283 283 281 280 282 278 276 289 287 284 288 289 290
304 304 306 307 310 313 311 310 309 309 308 306 302 302 301 297 296 297 297 295 294 293 292 292 291 291 291 287 286 285 283 283 283 280 285 280 286 284 285 285 290 290 289 290 291 290 289
Wind_Speed
7 8 8 9 10 10 10 10 10 11 12 13 13 14 15 13 11 10 10 10 8 9 10 9 8 7 6 7 4 9 6 11 10 10 13 14 14 12 12 13 12 17 11 9 5 5 7
6 8 9 10 10 11 11 10 11 11 12 12 13 14 15 15 14 11 9 5 7 7 10 10 6 3 0 6 6 6 4 11 10 11 10 9 9 13 10 12 14 12 17 5 2 6 3
9 11 10 10 11 11 10 11 11 12 12 13 13 14 15 15 15 14 12 10 5 4 8 14 9 4 9 3 1 4 1 7 7 8 8 0 8 6 5 10 12 11 10 5 6 6 3
12 13 13 12 11 11 11 11 11 12 12 14 14 13 15 16 16 14 13 11 7 3 8 11 11 4 3 7 3 2 6 4 1 2 2 3 10 7 3 9 8 15 8 6 8 9 3
12 13 14 14 13 12 12 11 11 12 13 14 15 14 14 16 18 15 12 8 10 9 8 9 3 5 4 9 2 4 6 6 6 0 4 5 6 6 5 4 6 8 9 11 6 9 6
11 12 14 14 13 13 13 11 11 11 12 13 15 15 15 16 18 16 11 2 11 9 9 5 2 4 1 2 4 4 4 5 3 7 4 2 4 6 5 5 8 11 14 15 8 7 5
11 12 13 14 14 14 13 12 12 12 12 12 14 15 16 15 16 17 6 4 3 3 8 4 6 3 1 2 3 6 4 3 3 3 8 4 4 9 10 11 10 13 16 13 9 8 6
10 12 13 14 15 14 14 13 13 13 12 12 12 14 16 17 17 13 7 3 2 3 3 4 1 7 7 4 2 5 3 3 1 6 9 7 12 16 16 11 15 15 16 8 7 5 2
9 11 12 13 14 15 15 15 14 13 13 12 12 12 14 16 16 6 4 3 1 1 3 5 2 2 6 5 4 4 5 3 2 7 12 10 8 12 7 7 10 15 8 7 9 5 2
9 10 12 13 14 14 15 15 15 14 13 13 12 12 13 18 4 1 3 3 2 2 2 5 3 1 6 5 3 14 14 1 2 3 13 5 8 9 7 4 5 11 1 11 15 7 5
9 10 11 12 13 14 15 16 16 15 14 13 12 12 12 6 6 2 3 2 2 3 3 6 6 10 5 3 8 2 6 7 3 10 5 3 5 7 7 3 3 5 4 11 10 5 7
9 10 10 12 13 14 15 15 16 16 16 14 13 13 13 2 4 3 2 1 3 1 3 2 2 6 5 9 2 8 8 12 3 7 5 2 3 6 3 2 1 8 2 7 5 4 4
10 9 10 12 12 13 14 15 16 16 17 16 14 13 6 4 2 2 2 3 1 5 4 3 3 2 5 4 8 9 6 4 3 3 2 5 4 2 3 5 6 3 2 2 5 4 5
10 10 10 11 13 14 14 15 17 17 18 17 14 7 5 3 2 2 3 2 6 4 5 2 3 7 1 2 3 8 7 4 3 2 3 5 0 7 6 4 1 5 1 5 7 5 4
10 10 11 10 12 13 15 16 17 17 17 19 11 3 3 4 2 2 3 5 3 4 3 6 7 3 1 2 1 3 4 3 4 6 2 5 3 2 4 3 2 4 2 2 7 3 6
9 9 10 11 12 13 15 17 18 18 17 15 3 2 3 3 3 3 1 3 2 3 5 4 4 3 3 5 3 3 3 2 3 2 1 4 6 3 2 3 2 2 5 3 4 4 3
10 10 10 11 12 12 14 17 19 20 20 8 3 3 2 4 2 2 3 2 2 3 2 4 6 5 3 4 4 3 5 3 7 6 7 5 6 1 2 1 3 2 3 2 2 3 4
9 7 8 9 11 11 13 15 18 19 22 3 2 1 3 4 0 2 2 3 2 2 3 2 3 4 5 5 5 4 4 6 6 6 5 4 4 4 4 3 2 3 4 3 4 1 2
10 8 7 8 9 10 12 14 17 18 15 4 3 1 3 2 1 2 1 2 3 3 3 4 3 4 4 3 1 4 5 3 5 5 4 7 3 4 3 2 1 4 2 3 2 4 3
9 9 8 7 8 10 10 13 15 17 14 2 3 2 1 1 2 2 2 2 3 1 0 3 3 4 4 2 3 3 3 1 1 2 3 2 4 4 4 3 1 3 3 3 2 4 2
10 10 8 8 7 9 9 12 15 17 13 2 1 2 1 3 4 3 1 2 1 2 1 2 1 6 4 3 1 3 1 4 2 1 2 2 4 3 4 3 3 3 4 4 3 2 3
11 10 9 8 7 7 8 10 15 18 18 1 3 3 2 1 2 6 2 3 4 2 6 3 4 4 8 5 6 6 7 6 4 3 3 4 1 2 2 2 1 1 4 6 5 3 4
12 10 9 8 7 6 7 9 13 18 14 3 0 2 2 1 1 3 2 3 4 3 2 4 5 5 6 3 5 3 3 3 3 4 5 3 2 3 1 1 4 4 6 8 5 7 5
13 11 10 9 7 6 6 6 10 13 11 2 2 2 3 1 2 3 1 2 3 3 2 2 6 4 1 1 4 4 2 2 4 4 3 1 2 1 2 2 3 2 5 2 4 2 7
5 12 11 10 8 6 4 3 7 9 12 3 2 2 3 3 2 3 1 2 3 3 2 3 4 2 2 3 2 2 1 1 3 4 5 5 3 1 3 2 3 3 3 3 4 2 4
9 4 3 11 9 7 5 3 3 6 9 1 3 2 2 2 2 4 1 1 2 3 3 3 2 1 2 2 2 2 1 2 1 2 1 3 2 2 1 1 2 2 4 0 0 2 4
8 8 6 5 10 9 7 5 2 2 6 3 2 2 2 2 3 4 1 2 3 2 2 2 4 2 1 1 1 1 1 0 1 1 2 1 1 1 1 2 5 2 4 1 2 5 5
10 10 12 11 8 10 9 7 6 3 3 3 2 2 2 2 2 4 5 3 1 2 2 0 2 2 1 1 1 1 1 0 2 2 3 4 5 3 1 1 7 5 3 5 5 2 4
13 10 13 14 15 9 10 9 7 6 3 3 2 0 1 1 1 2 3 3 3 2 2 1 1 1 1 1 1 1 2 1 2 3 2 2 4 4 7 6 1 7 3 4 3 3 1
Wind_Direction
359 351 343 343 343 346 345 331 340 345 343 350 349 344 341 336 333 331 350 348 333 360 8 26 22 65 144 194 19 357 141 178 185 198 211 231 221 212 210 208 214 215 242 233 32 332 288
336 356 357 357 350 343 327 325 331 333 334 337 337 337 335 334 329 328 309 318 331 344 16 17 15 346 353 179 346 9 243 175 186 200 204 230 220 232 220 240 214 197 240 160 176 229 269
5 9 358 355 352 336 324 322 323 322 326 326 327 334 331 330 322 319 303 275 306 327 18 18 11 291 52 354 189 43 280 191 204 214 193 89 338 302 236 231 219 226 214 111 216 181 166
9 9 3 3 355 343 330 322 319 320 320 319 321 330 330 326 318 323 305 284 221 278 339 348 10 309 84 11 359 141 118 68 258 58 281 72 6 300 269 323 247 210 159 174 179 174 119
7 4 4 4 356 349 337 326 322 320 319 318 320 326 327 322 319 327 310 276 216 245 282 305 43 352 111 313 27 55 3 140 130 355 38 75 54 308 251 230 218 216 186 196 144 194 134
1 3 4 3 358 355 344 336 327 323 321 321 320 322 324 323 322 328 330 283 197 242 234 247 128 126 43 351 23 48 28 88 136 136 85 138 127 282 237 196 199 195 211 198 146 189 183
358 358 6 1 1 1 352 347 337 326 325 322 322 322 322 323 323 319 340 146 177 189 59 58 336 125 329 309 284 65 28 78 99 208 177 208 176 222 231 215 228 202 224 192 133 164 150
356 1 4 0 1 1 360 352 346 338 331 328 323 322 322 322 324 310 288 34 66 342 114 106 313 110 164 206 108 72 58 95 128 199 172 165 210 218 223 217 226 234 217 171 68 138 152
352 355 2 0 0 360 1 357 350 345 341 334 325 323 324 321 323 297 79 65 253 242 241 81 289 233 172 168 59 87 154 139 263 215 210 172 198 221 196 203 253 243 241 181 130 154 259
336 346 354 355 360 360 358 360 356 349 343 338 331 329 328 323 303 354 88 85 198 208 189 181 187 101 132 220 59 171 200 166 40 258 192 190 221 192 165 187 38 258 299 127 129 131 162
338 345 346 349 353 358 358 359 0 354 345 333 328 331 326 331 307 325 28 347 165 235 50 338 152 145 157 116 147 72 192 193 230 141 222 202 199 171 153 64 355 307 352 125 152 152 105
332 342 345 343 347 352 354 356 355 351 342 333 324 327 327 233 228 61 332 262 221 357 22 19 93 90 131 131 248 150 207 212 310 168 124 75 314 22 54 36 179 281 169 129 146 102 56
318 330 339 339 342 345 346 350 350 348 341 332 316 310 296 305 342 346 306 226 344 63 231 31 341 101 176 147 165 191 200 206 264 92 34 88 60 128 340 78 356 3 192 80 37 30 192
305 315 328 333 337 343 340 341 343 342 336 327 316 297 200 289 328 309 227 245 61 261 33 312 238 259 152 299 152 184 204 177 62 315 165 129 298 352 328 67 98 268 324 155 149 167 201
302 312 324 329 335 338 341 338 340 337 337 336 320 200 210 149 226 240 246 45 145 360 344 332 291 256 133 149 275 192 64 56 34 12 26 126 60 167 40 26 59 331 295 339 109 17 82
296 305 309 317 329 334 335 341 341 338 338 341 296 221 122 106 173 241 86 98 47 353 333 285 349 324 49 0 318 1 69 349 11 53 223 291 99 12 105 241 186 207 305 25 346 116 135
285 292 301 307 316 329 333 342 343 341 337 353 250 251 137 129 163 232 85 116 82 86 1 331 349 337 73 353 323 42 47 54 12 325 293 318 113 148 253 29 45 321 279 263 99 82 128
269 293 307 309 315 320 332 340 344 345 340 270 304 267 173 150 324 65 55 5 230 33 180 263 255 329 350 351 14 58 73 32 347 297 335 29 114 107 82 92 35 303 304 306 103 266 35
260 275 303 315 316 316 326 335 342 347 1 314 317 322 195 174 64 105 185 114 10 3 43 345 14 351 315 24 56 37 77 6 5 32 21 345 81 90 5 18 146 262 178 334 13 36 192
247 263 279 302 315 326 330 334 337 344 353 280 306 4 339 126 243 23 161 127 132 182 53 304 310 243 273 77 30 75 96 97 330 51 258 282 52 80 151 143 311 177 162 258 3 92 194
241 252 266 284 309 324 333 335 337 339 349 279 6 74 50 345 28 40 342 298 102 59 289 281 177 16 336 359 61 73 49 176 193 300 244 56 96 81 91 55 18 21 155 168 184 289 109
236 245 258 277 299 326 335 342 343 341 338 91 10 349 211 102 267 281 151 37 25 112 356 30 55 4 24 62 11 22 344 23 46 319 38 341 108 88 178 167 135 281 236 185 193 270 301
229 238 247 260 276 304 334 353 353 352 340 35 124 177 260 196 281 281 36 58 71 340 103 51 342 315 64 41 19 5 48 68 58 11 15 27 114 44 280 251 317 308 210 187 180 189 182
220 226 236 248 257 281 320 1 8 2 8 323 41 288 309 51 319 28 74 27 85 50 29 56 6 340 82 288 302 273 83 58 58 31 8 322 102 85 257 332 21 205 25 55 168 222 220
175 221 225 232 238 247 277 340 32 7 1 47 21 349 360 305 33 153 223 80 144 168 60 56 50 2 252 292 296 221 233 238 100 30 1 4 342 78 96 268 178 186 230 148 173 126 191
72 56 227 221 223 225 233 276 39 28 2 335 80 296 304 325 55 338 223 297 293 182 154 98 112 345 298 273 281 294 333 20 131 134 332 320 300 82 349 335 252 106 146 335 95 226 89
69 46 20 255 217 211 207 224 226 45 17 2 91 32 281 307 57 350 342 344 358 330 67 131 159 187 22 294 297 294 322 29 343 284 157 93 40 161 237 297 302 121 145 258 111 225 132
55 48 35 23 224 197 192 201 212 193 57 19 102 21 45 332 78 14 11 331 324 291 330 181 65 329 120 16 70 344 316 144 328 163 185 179 154 205 317 204 294 137 75 169 184 81 141
61 50 38 32 24 199 185 191 199 210 143 56 102 113 14 200 307 32 70 55 32 45 336 70 194 179 357 327 314 24 292 122 317 268 6 269 188 182 175 215 157 188 77 118 105 120 344